Flag for U.S.A. Weather past 2 weeks in Cambridge, Massachusetts, U.S.A.

Now
47 °F

Passing clouds.


Feels Like: 43 °F
Forecast: 44 / 57 °F
Wind: 8 mph from Northwest

Location: Logan International Airport

Current Time: Apr 27, 2015 at 5:27:04 AM

Latest Report: Apr 27, 2015 at 4:54 AM


Visibility: 10 mi

Pressure: 29.59 "Hg

Humidity: 59%

Dew point: 33 °F

Location of CambridgeLocation

Historic Weather in Cambridge — Graph

°F

Cambridge temperature yesterday

Maximum temperature yesterday: 55 °F (at 4:54 PM)
Minimum temperature yesterday: 43 °F (at 3:54 AM)
Average temperature yesterday: 48 °F

Past Weeks' High & Low Weather Summary

 TemperatureHumidityPressure
High69 °F (Apr 13, 12:54 PM)100% (Apr 20, 6:54 PM)30.50 "Hg (Apr 20, 6:54 PM)
Low36 °F (Apr 25, 5:54 AM)16% (Apr 15, 12:54 PM)29.53 "Hg (Apr 21, 9:54 AM)
Average51 °F56%29.95 "Hg
* Reported Apr 12 3:54 AM — Apr 27 3:54 AM, Cambridge, Weather by CustomWeather, © 2015

Note: Actual official high and low records may vary slightly from our data, if they occured in-between our weather recording intervals... More about our weather records

Advertising

Cambridge weather history for previous 24 hours

 ConditionsComfort  
Time TempWeatherWind HumidityBarometerVisibility
3:54 AM
Mon, Apr 27
48 °FPassing clouds.7 mph56%29.59 "Hg10 mi
2:54 AM48 °FPartly cloudy.7 mph56%29.60 "Hg10 mi
1:54 AM49 °FOvercast.8 mph55%29.61 "Hg10 mi
12:54 AM50 °FMostly cloudy.7 mph50%29.61 "Hg10 mi
11:54 PM
Sun, Apr 26
51 °FOvercast.9 mph48%29.62 "Hg10 mi
10:54 PM52 °FMostly cloudy.12 mph47%29.62 "Hg10 mi
9:54 PM52 °FMostly cloudy.6 mph53%29.62 "Hg10 mi
8:54 PM48 °FOvercast.No wind71%29.63 "Hg10 mi
7:54 PM51 °FOvercast.No wind56%29.62 "Hg10 mi
6:54 PM50 °FOvercast.3 mph61%29.62 "Hg10 mi
5:54 PM55 °FMostly cloudy.10 mph35%29.61 "Hg10 mi
4:54 PM55 °FOvercast.3 mph45%29.62 "Hg10 mi
3:54 PM53 °FOvercast.6 mph51%29.62 "Hg10 mi
2:54 PM49 °FMore clouds than sun.3 mph61%29.64 "Hg10 mi
1:54 PM47 °FPartly sunny.7 mph69%29.64 "Hg10 mi
12:54 PM48 °FPartly sunny.13 mph61%29.65 "Hg10 mi
11:54 AM51 °FBroken clouds.10 mph54%29.66 "Hg10 mi
10:54 AM49 °FOvercast.8 mph57%29.67 "Hg10 mi
9:54 AM50 °FPartly sunny.5 mph52%29.67 "Hg10 mi
8:54 AM48 °FPartly sunny.8 mph56%29.67 "Hg10 mi
7:54 AM46 °FPassing clouds.6 mph58%29.69 "Hg10 mi
6:54 AM45 °FPassing clouds.5 mph58%29.69 "Hg10 mi
5:54 AM43 °FPassing clouds.7 mph60%29.67 "Hg10 mi
Weather by CustomWeather, © 2015

See weather overviewHow to use our weather pages